Simultaneous Nadir Overpasses (SNOs) Predictions

Prediction of SNOs between LANDSAT-8 and METOP-B Satellite Orbit:

Table of predicted SNOs for the next 14.0 days since TLE Epoch: 2/27/2015
Index Date (LANDSAT-8) Time (LANDSAT-8) Lat,Lon (LANDSAT-8) SZA (LANDSAT-8 ) Date (METOP-B) Time (METOP-B) Lat,Lon (METOP-B) SZA (METOP-B ) Distance(km) Time Diff (sec)
1 03/01/2015 07:25:04 81.04, 106.95 90.28 03/01/2015 07:24:24 81.04, 106.92 90.26 0.58 40
2 03/01/2015 08:14:30 -81.06, -85.09 89.69 03/01/2015 08:15:03 -81.06, -85.14 89.68 0.88 33
3 03/04/2015 02:59:18 81.03, 173.24 89.20 03/04/2015 02:58:50 81.03, 173.10 89.18 2.53 28
4 03/04/2015 03:48:44 -81.05, -18.78 90.77 03/04/2015 03:49:29 -81.05, -18.93 90.76 2.65 45
5 03/06/2015 22:33:31 81.03,-120.24 88.14 03/06/2015 22:33:15 81.03,-120.41 88.12 2.85 16
6 03/06/2015 23:22:57 -81.06, 47.75 91.82 03/06/2015 23:23:54 -81.06, 47.60 91.82 2.64 57
7 03/09/2015 18:07:42 81.05, -53.51 87.11 03/09/2015 18:07:38 81.05, -53.59 87.09 1.60 4
8 03/09/2015 18:57:08 -81.08, 114.50 92.86 03/09/2015 18:58:17 -81.07, 114.46 92.84 1.01 69
9 03/12/2015 12:52:30 -81.02,-155.24 94.05 03/12/2015 12:51:24 -81.02,-155.12 94.06 2.21 66




NCC Satellite Simultaneous Nadir Overpasses (SNOs) Prediction Service
